Weather History for San Carlos, CA

Change the Weather History Date:

Tuesday, January 22, 2013

  Actual Average Record
Temperature  
Mean Temperature 48 °F -  
Max Temperature 57 °F 61 °F 75 °F (1968)
Min Temperature 39 °F 39 °F 28 °F (1962)
Degree Days  
Heating Degree Days 17    
Moisture  
Dew Point 39 °F    
Average Humidity 76    
Maximum Humidity 93    
Minimum Humidity 51    
Precipitation  
Precipitation 0.00 in - - ()
Sea Level Pressure  
Sea Level Pressure 30.08 in    
Wind  
Wind Speed 1 mph (NE)    
Max Wind Speed 6 mph    
Max Gust Speed -    
Visibility 9 miles    
Events      
Averages and records for this station are not official NWS values.
T = Trace of Precipitation, MM = Missing Value Source: NWS Daily Summary

Daily Weather History Graph

Daily Weather History Graph

Search for Another Location

Airport:

Trip Planner

Search our weather history database for the weather conditions in past years. The results will help you decide how hot, cold, wet, or windy it might be!

Date:

Astronomy

Jan. 22, 2013 Rise Set
Actual Time 7:19 AM PST 5:22 PM PST
Civil Twilight 6:51 AM PST 5:50 PM PST
Nautical Twilight 6:19 AM PST 6:22 PM PST
Astronomical Twilight 5:48 AM PST 6:53 PM PST
Moon 1:50 PM PST (1/22) 3:44 AM PST (1/22)
Length of Visible Light 10h 59m
Length of Day
10h 03m
Waxing Gibbous, 83% of the Moon is Illuminated
Jan 22
Waxing Gibbous
Jan 26
Full
Feb 3
Last Quarter
Feb 9
New
Feb 17
First Quarter

Hourly Weather History & Observations

Time (PST) Temp. Windchill Dew Point Humidity Pressure Visibility Wind Dir Wind Speed Gust Speed Precip Events Conditions
12:15 AM 44.6 °F - 37.4 °F 76% 30.12 in 10.0 mi Calm Calm - N/A   Clear
12:35 AM 42.8 °F - 37.4 °F 81% 30.12 in 10.0 mi Calm Calm - N/A   Clear
12:55 AM 42.8 °F - 37.4 °F 81% 30.12 in 10.0 mi Calm Calm - N/A   Clear
1:15 AM 42.8 °F 41.1 °F 37.4 °F 81% 30.12 in 9.0 mi SW 3.5 mph - N/A   Clear
1:35 AM 42.8 °F 41.1 °F 37.4 °F 81% 30.12 in 10.0 mi WSW 3.5 mph - N/A   Clear
1:55 AM 42.8 °F - 37.4 °F 81% 30.11 in 10.0 mi Calm Calm - N/A   Clear
2:15 AM 41.0 °F - 37.4 °F 87% 30.11 in 10.0 mi Calm Calm - N/A   Clear
2:35 AM 41.0 °F - 37.4 °F 87% 30.11 in 10.0 mi Calm Calm - N/A   Clear
2:55 AM 41.0 °F - 37.4 °F 87% 30.11 in 10.0 mi Calm Calm - N/A   Clear
3:15 AM 41.0 °F - 37.4 °F 87% 30.10 in 10.0 mi Calm Calm - N/A   Clear
3:35 AM 41.0 °F - 35.6 °F 81% 30.10 in 10.0 mi Calm Calm - N/A   Clear
3:55 AM 41.0 °F - 35.6 °F 81% 30.09 in 10.0 mi Calm Calm - N/A   Clear
4:15 AM 41.0 °F - 35.6 °F 81% 30.09 in 10.0 mi Calm Calm - N/A   Clear
4:35 AM 41.0 °F - 35.6 °F 81% 30.09 in 10.0 mi Calm Calm - N/A   Clear
4:55 AM 41.0 °F - 35.6 °F 81% 30.10 in 10.0 mi Calm Calm - N/A   Clear
5:15 AM 39.2 °F - 35.6 °F 87% 30.10 in 10.0 mi Calm Calm - N/A   Clear
5:35 AM 41.0 °F - 35.6 °F 81% 30.10 in 10.0 mi Calm Calm - N/A   Clear
5:55 AM 39.2 °F - 35.6 °F 87% 30.10 in 8.0 mi Calm Calm - N/A   Clear
6:15 AM 39.2 °F 37.0 °F 37.4 °F 93% 30.10 in 7.0 mi SE 3.5 mph - N/A   Clear
6:35 AM 39.2 °F - 35.6 °F 87% 30.10 in 9.0 mi Calm Calm - N/A   Clear
6:49 AM 39.2 °F - 35.6 °F 87% 30.11 in 10.0 mi Calm Calm - N/A   Scattered Clouds
6:55 AM 39.2 °F - 35.6 °F 87% 30.11 in 5.0 mi Calm Calm - N/A   Haze
7:54 AM 41.0 °F - 37.4 °F 87% 30.11 in 8.0 mi Calm Calm - N/A   Mostly Cloudy
8:55 AM 46.4 °F 43.5 °F 39.2 °F 76% 30.12 in 6.0 mi SE 5.8 mph - N/A   Haze
9:53 AM 48.2 °F - 39.2 °F 71% 30.12 in 6.0 mi Calm Calm - N/A   Haze
10:48 AM 53.6 °F - 37.4 °F 54% 30.12 in 6.0 mi NNE 3.5 mph - N/A   Haze
11:55 AM 55.4 °F - 37.4 °F 51% 30.10 in 8.0 mi Calm Calm - N/A   Mostly Cloudy
12:54 PM 55.4 °F - 42.8 °F 63% 30.07 in 10.0 mi NE 4.6 mph - N/A   Mostly Cloudy
1:47 PM 57.2 °F - 41.0 °F 55% 30.05 in 10.0 mi NNE 3.5 mph - N/A   Mostly Cloudy
2:49 PM 57.2 °F - 42.8 °F 59% 30.04 in 10.0 mi ENE 3.5 mph - N/A   Mostly Cloudy
3:47 PM 57.2 °F - 44.6 °F 63% 30.03 in 10.0 mi NE 4.6 mph - N/A   Mostly Cloudy
4:47 PM 55.4 °F - 46.4 °F 72% 30.02 in 10.0 mi ENE 3.5 mph - N/A   Mostly Cloudy
5:47 PM 53.6 °F - 44.6 °F 72% 30.02 in 10.0 mi Calm Calm - N/A   Mostly Cloudy
6:50 PM 53.6 °F - 41.0 °F 62% 30.02 in 10.0 mi Calm Calm - N/A   Clear
7:48 PM 51.8 °F - 41.0 °F 67% 30.02 in 10.0 mi Calm Calm - N/A   Clear
8:47 PM 51.8 °F - 42.8 °F 71% 30.03 in 10.0 mi Calm Calm - N/A   Clear
9:15 PM 50.0 °F - 41.0 °F 71% 30.04 in 10.0 mi Calm Calm - N/A   Clear
9:35 PM 50.0 °F - 41.0 °F 71% 30.04 in 10.0 mi Calm Calm - N/A   Clear
9:55 PM 50.0 °F - 41.0 °F 71% 30.05 in 10.0 mi Calm Calm - N/A   Clear
10:15 PM 50.0 °F - 41.0 °F 71% 30.05 in 10.0 mi Calm Calm - N/A   Clear
10:35 PM 50.0 °F - 41.0 °F 71% 30.05 in 10.0 mi WNW 3.5 mph - N/A   Clear
10:55 PM 50.0 °F - 44.6 °F 82% 30.05 in 10.0 mi Calm Calm - N/A   Clear
11:15 PM 50.0 °F - 44.6 °F 82% 30.06 in 10.0 mi WSW 3.5 mph - N/A   Clear
11:35 PM 50.0 °F - 41.0 °F 71% 30.05 in 10.0 mi SW 3.5 mph - N/A   Clear
11:55 PM 50.0 °F - 41.0 °F 71% 30.05 in 7.0 mi Calm Calm - N/A   Clear